FW6307 Weather Reports


time (UTC)temp
C
wind
direction
speed
KPH
gust
KPH
rain 1hr
cm
rain 24hr
cm
rain mn
cm
humidity
%
barometer
mb
20260507231731 15 279 19.3 30.6 0.00 0.00 0.00 38 1011.0
20260507231233 15 338 9.7 16.1 0.00 0.00 0.00 38 1011.0
20260507230731 15 354 16.1 20.9 0.00 0.00 0.00 37 1011.0
20260507230232 15 355 17.7 22.5 0.00 0.00 0.00 37 1011.0
20260507225732 15 302 9.7 16.1 0.00 0.00 0.00 37 1011.0
20260507225232 15 321 14.5 20.9 0.00 0.00 0.00 38 1011.0
20260507224731 15 331 14.5 22.5 0.00 0.00 0.00 37 1011.0
20260507224233 15 334 11.3 19.3 0.00 0.00 0.00 37 1010.0
20260507223731 15 343 16.1 20.9 0.00 0.00 0.00 37 1010.0
20260507222748 15 341 17.7 24.1 0.00 0.00 0.00 37 1010.0
20260507222235 15 343 11.3 20.9 0.00 0.00 0.00 36 1010.0
20260507221731 15 324 4.8 8.0 0.00 0.00 0.00 36 1010.0
20260507221233 15 333 9.7 14.5 0.00 0.00 0.00 36 1010.0
20260507220732 15 315 12.9 17.7 0.00 0.00 0.00 35 1010.0
20260507220231 15 333 11.3 14.5 0.00 0.00 0.00 35 1010.0
20260507215732 16 330 11.3 24.1 0.00 0.00 0.00 36 1010.0
20260507215234 16 323 9.7 14.5 0.00 0.00 0.00 35 1010.0
20260507214732 16 335 11.3 20.9 0.00 0.00 0.00 35 1010.0
20260507214232 16 332 8.0 12.9 0.00 0.00 0.00 35 1010.0
20260507213732 15 4 9.7 19.3 0.00 0.00 0.00 34 1010.0
20260507213232 15 287 14.5 19.3 0.00 0.00 0.00 35 1010.0
20260507212731 15 0 9.7 17.7 0.00 0.00 0.00 35 1010.0
20260507212234 15 274 6.4 11.3 0.00 0.00 0.00 35 1010.0
20260507211732 15 314 11.3 14.5 0.00 0.00 0.00 35 1010.0
20260507211232 16 328 12.9 19.3 0.00 0.00 0.00 34 1010.0
20260507210732 16 318 6.4 11.3 0.00 0.00 0.00 35 1010.0
20260507210233 16 325 8.0 14.5 0.00 0.00 0.00 35 1010.0
20260507205732 16 291 11.3 17.7 0.00 0.00 0.00 35 1010.0
20260507205232 16 317 6.4 11.3 0.00 0.00 0.00 34 1009.0
20260507204733 15 311 17.7 25.7 0.00 0.00 0.00 33 1010.0
20260507204233 15 341 12.9 19.3 0.00 0.00 0.00 34 1009.0
20260507203735 15 295 11.3 17.7 0.00 0.00 0.00 35 1010.0
20260507203232 15 301 3.2 3.2 0.00 0.00 0.00 35 1009.0
20260507202731 16 258 11.3 16.1 0.00 0.00 0.00 34 1010.0
20260507202232 16 324 9.7 17.7 0.00 0.00 0.00 34 1010.0
20260507201734 15 330 9.7 12.9 0.00 0.00 0.00 34 1010.0
20260507201232 15 334 9.7 16.1 0.00 0.00 0.00 35 1010.0
20260507200733 15 290 11.3 14.5 0.00 0.00 0.00 34 1010.0
20260507200232 16 323 14.5 17.7 0.00 0.00 0.00 34 1010.0
20260507195733 16 320 12.9 20.9 0.00 0.00 0.00 33 1010.0
20260507195232 16 284 17.7 24.1 0.00 0.00 0.00 34 1010.0
20260507194732 16 257 9.7 14.5 0.00 0.00 0.00 34 1010.0
20260507194231 16 300 14.5 19.3 0.00 0.00 0.00 34 1010.0
20260507193732 16 265 14.5 22.5 0.00 0.00 0.00 34 1010.0
20260507193232 16 269 12.9 19.3 0.00 0.00 0.00 35 1010.0
20260507192732 16 273 12.9 17.7 0.00 0.00 0.00 35 1010.0
20260507192233 16 277 11.3 16.1 0.00 0.00 0.00 34 1010.0
20260507191733 16 262 11.3 17.7 0.00 0.00 0.00 36 1010.0
20260507191231 15 343 16.1 20.9 0.00 0.00 0.00 38 1010.0
20260507190733 15 292 8.0 12.9 0.00 0.00 0.00 36 1010.0
20260507190231 15 271 14.5 20.9 0.00 0.00 0.00 35 1010.0
20260507185731 15 292 11.3 16.1 0.00 0.00 0.00 37 1010.0
20260507185231 16 322 8.0 11.3 0.00 0.00 0.00 40 1010.0
20260507184731 15 284 11.3 14.5 0.00 0.00 0.00 40 1010.0
20260507184235 15 280 12.9 19.3 0.00 0.00 0.00 39 1010.0
20260507183734 15 295 14.5 20.9 0.00 0.00 0.00 39 1010.0
20260507183234 15 256 9.7 16.1 0.00 0.00 0.00 40 1010.0
20260507182731 15 255 4.8 9.7 0.00 0.00 0.00 40 1010.0
20260507182232 15 272 9.7 12.9 0.00 0.00 0.00 41 1010.0
20260507181733 15 286 9.7 12.9 0.00 0.00 0.00 40 1010.0
20260507181232 15 326 6.4 11.3 0.00 0.00 0.00 41 1011.0
20260507180733 15 323 9.7 17.7 0.00 0.00 0.00 42 1011.0
20260507180232 15 280 11.3 19.3 0.00 0.00 0.00 42 1011.0
20260507175735 15 260 11.3 19.3 0.00 0.00 0.00 42 1011.0
20260507175232 15 272 11.3 19.3 0.00 0.00 0.00 41 1011.0
20260507174734 15 258 6.4 14.5 0.00 0.00 0.00 42 1011.0
20260507174234 14 238 9.7 14.5 0.00 0.00 0.00 43 1011.0
20260507173732 14 260 8.0 14.5 0.00 0.00 0.00 43 1011.0
20260507173236 14 271 11.3 16.1 0.00 0.00 0.00 43 1011.0
20260507172731 15 272 12.9 17.7 0.00 0.00 0.00 43 1011.0
20260507172237 15 293 9.7 14.5 0.00 0.00 0.00 42 1011.0
20260507171735 15 226 11.3 17.7 0.00 0.00 0.00 44 1011.0
20260507171231 15 293 4.8 6.4 0.00 0.00 0.00 44 1011.0
20260507170734 15 239 8.0 14.5 0.00 0.00 0.00 43 1011.0
20260507170233 15 276 6.4 17.7 0.00 0.00 0.00 42 1011.0
20260507165734 15 221 6.4 9.7 0.00 0.00 0.00 41 1011.0
20260507165237 14 260 8.0 11.3 0.00 0.00 0.00 43 1011.0
20260507164731 14 316 9.7 17.7 0.00 0.00 0.00 42 1011.0
20260507164234 14 284 9.7 14.5 0.00 0.00 0.00 44 1011.0
20260507163732 14 259 16.1 20.9 0.00 0.00 0.00 42 1011.0
20260507163234 14 266 12.9 17.7 0.00 0.00 0.00 42 1011.0
20260507162733 14 296 9.7 19.3 0.00 0.00 0.00 43 1012.0
20260507162232 14 255 6.4 9.7 0.00 0.00 0.00 43 1012.0
20260507161733 14 242 11.3 17.7 0.00 0.00 0.00 43 1012.0
20260507161237 13 282 9.7 19.3 0.00 0.00 0.00 44 1012.0
20260507160734 13 297 9.7 17.7 0.00 0.00 0.00 44 1012.0
20260507160233 13 273 9.7 14.5 0.00 0.00 0.00 43 1012.0
20260507155732 13 300 9.7 14.5 0.00 0.00 0.00 45 1012.0
20260507155232 13 279 11.3 14.5 0.00 0.00 0.00 45 1012.0
20260507154731 13 241 9.7 14.5 0.00 0.00 0.00 44 1012.0
20260507154234 13 281 3.2 6.4 0.00 0.00 0.00 43 1012.0
20260507153734 13 269 6.4 9.7 0.00 0.00 0.00 45 1012.0
20260507153232 13 289 11.3 14.5 0.00 0.00 0.00 46 1012.0
20260507152731 13 302 6.4 9.7 0.00 0.00 0.00 47 1012.0
20260507152232 13 241 9.7 14.5 0.00 0.00 0.00 47 1012.0
20260507151733 13 299 6.4 9.7 0.00 0.00 0.00 47 1012.0
20260507151232 13 239 6.4 12.9 0.00 0.00 0.00 47 1012.0
20260507150734 12 336 6.4 12.9 0.00 0.00 0.00 48 1012.0
20260507150234 12 300 9.7 14.5 0.00 0.00 0.00 47 1012.0
20260507145732 12 313 11.3 20.9 0.00 0.00 0.00 48 1012.0
20260507145232 12 331 9.7 17.7 0.00 0.00 0.00 47 1012.0
20260507144735 12 307 4.8 8.0 0.00 0.00 0.00 50 1013.0
20260507144232 12 292 4.8 6.4 0.00 0.00 0.00 50 1013.0
20260507143733 12 334 8.0 11.3 0.00 0.00 0.00 52 1013.0
20260507143233 12 293 3.2 4.8 0.00 0.00 0.00 54 1013.0
20260507142734 12 231 6.4 9.7 0.00 0.00 0.00 55 1013.0
20260507142233 12 221 6.4 8.0 0.00 0.00 0.00 54 1013.0
20260507141732 12 271 8.0 11.3 0.00 0.00 0.00 56 1013.0
20260507141233 12 274 9.7 12.9 0.00 0.00 0.00 56 1013.0
20260507140737 11 269 1.6 6.4 0.00 0.00 0.00 57 1013.0
20260507140234 11 255 4.8 6.4 0.00 0.00 0.00 56 1013.0
20260507135733 11 270 6.4 11.3 0.00 0.00 0.00 57 1013.0
20260507135234 11 288 6.4 12.9 0.00 0.00 0.00 56 1013.0
20260507134734 11 248 8.0 16.1 0.00 0.00 0.00 56 1013.0
20260507134232 11 278 6.4 9.7 0.00 0.00 0.00 55 1013.0
20260507133733 11 328 6.4 9.7 0.00 0.00 0.00 56 1013.0
20260507133233 11 210 6.4 9.7 0.00 0.00 0.00 57 1013.0
20260507132732 11 250 6.4 11.3 0.00 0.00 0.00 59 1013.0
20260507132234 11 232 6.4 12.9 0.00 0.00 0.00 61 1013.0
20260507131732 10 280 8.0 12.9 0.00 0.00 0.00 60 1014.0
20260507131231 11 308 3.2 6.4 0.00 0.00 0.00 60 1014.0
20260507130731 11 283 1.6 3.2 0.00 0.00 0.00 61 1014.0
20260507130235 11 340 3.2 6.4 0.00 0.00 0.00 62 1014.0
20260507125735 10 349 3.2 4.8 0.00 0.00 0.00 66 1014.0
20260507125231 11 21 3.2 4.8 0.00 0.00 0.00 65 1014.0
20260507124731 11 0 0.0 0.0 0.00 0.00 0.00 66 1014.0
20260507124232 10 4 0.0 3.2 0.00 0.00 0.00 66 1014.0
20260507123732 10 0 0.0 0.0 0.00 0.00 0.00 68 1014.0
20260507123233 10 2 0.0 1.6 0.00 0.00 0.00 70 1014.0
20260507122734 10 12 0.0 1.6 0.00 0.00 0.00 70 1014.0
20260507122233 10 356 0.0 1.6 0.00 0.00 0.00 70 1014.0
20260507121733 9 323 1.6 3.2 0.00 0.00 0.00 72 1014.0
20260507121232 9 34 0.0 1.6 0.00 0.00 0.00 71 1014.0
20260507120733 8 0 0.0 0.0 0.00 0.00 0.00 72 1014.0
20260507120234 8 0 0.0 0.0 0.00 0.00 0.00 76 1014.0
20260507115733 7 44 1.6 3.2 0.00 0.00 0.00 78 1014.0
20260507115232 7 0 0.0 0.0 0.00 0.00 0.00 81 1014.0
20260507114733 7 20 1.6 3.2 0.00 0.00 0.00 81 1014.0
20260507114231 7 11 0.0 3.2 0.00 0.00 0.00 80 1014.0
20260507113732 6 0 0.0 0.0 0.00 0.00 0.00 85 1014.0
20260507113235 6 357 3.2 3.2 0.00 0.00 0.00 86 1014.0
20260507112733 6 29 1.6 3.2 0.00 0.00 0.00 87 1014.0
20260507112231 5 10 1.6 3.2 0.00 0.00 0.00 87 1014.0
20260507111732 5 11 1.6 3.2 0.00 0.00 0.00 88 1014.0
20260507111233 5 1 1.6 3.2 0.00 0.00 0.00 89 1014.0
20260507110733 5 9 3.2 3.2 0.00 0.00 0.00 90 1014.0
20260507110233 5 346 1.6 3.2 0.00 0.00 0.00 91 1014.0
20260507105731 5 356 0.0 1.6 0.00 0.00 0.00 91 1014.0
20260507105231 5 5 3.2 3.2 0.00 0.00 0.00 92 1014.0
20260507104733 4 0 3.2 3.2 0.00 0.00 0.00 93 1013.0
20260507104231 4 0 3.2 3.2 0.00 0.00 0.00 93 1013.0
20260507103732 4 333 1.6 1.6 0.00 0.00 0.00 93 1013.0
20260507103234 4 24 1.6 3.2 0.00 0.00 0.00 93 1013.0
20260507102731 4 33 3.2 3.2 0.00 0.00 0.00 93 1013.0
20260507102233 4 28 3.2 3.2 0.00 0.00 0.00 93 1013.0
20260507101731 4 28 3.2 3.2 0.00 0.00 0.00 93 1013.0
20260507101233 4 3 0.0 1.6 0.00 0.00 0.00 93 1013.0
20260507100732 4 358 3.2 3.2 0.00 0.00 0.00 92 1013.0
20260507100234 4 19 3.2 3.2 0.00 0.00 0.00 93 1013.0
20260507095732 5 9 0.0 0.0 0.00 0.00 0.00 92 1013.0
20260507095232 5 342 1.6 1.6 0.00 0.00 0.00 92 1013.0
20260507094733 5 6 1.6 3.2 0.00 0.00 0.00 91 1013.0
20260507094232 5 343 0.0 1.6 0.00 0.00 0.00 91 1013.0
20260507093731 5 12 3.2 4.8 0.00 0.00 0.00 91 1013.0
20260507093233 5 1 3.2 3.2 0.00 0.00 0.00 91 1013.0
20260507092733 5 22 0.0 1.6 0.00 0.00 0.00 90 1013.0
20260507092231 5 0 1.6 3.2 0.00 0.00 0.00 90 1013.0
20260507091732 5 1 3.2 3.2 0.00 0.00 0.00 90 1013.0
20260507091231 5 358 1.6 3.2 0.00 0.00 0.00 90 1014.0
20260507090731 5 342 1.6 3.2 0.00 0.00 0.00 89 1014.0
20260507090233 5 351 1.6 3.2 0.00 0.00 0.00 89 1014.0
20260507085732 5 7 3.2 3.2 0.00 0.00 0.00 89 1014.0
20260507085232 5 0 0.0 0.0 0.00 0.00 0.00 88 1014.0
20260507084733 5 0 0.0 0.0 0.00 0.00 0.00 86 1013.0
20260507084233 6 0 0.0 0.0 0.00 0.00 0.00 86 1013.0
20260507083734 6 19 1.6 3.2 0.00 0.00 0.00 85 1013.0
20260507083232 6 18 3.2 4.8 0.00 0.00 0.00 84 1013.0
20260507082735 6 13 3.2 4.8 0.00 0.00 0.00 84 1013.0
20260507082232 6 0 3.2 4.8 0.00 0.00 0.00 85 1013.0
20260507081734 6 17 0.0 1.6 0.00 0.00 0.00 84 1013.0
20260507081231 6 29 1.6 1.6 0.00 0.00 0.00 83 1013.0
20260507080735 6 15 3.2 3.2 0.00 0.00 0.00 83 1013.0
20260507080231 6 0 0.0 0.0 0.00 0.00 0.00 83 1013.0
20260507075732 6 13 0.0 0.0 0.00 0.00 0.00 83 1013.0
20260507075232 6 1 1.6 3.2 0.00 0.00 0.00 82 1014.0
20260507074733 7 0 0.0 0.0 0.00 0.00 0.00 81 1014.0
20260507074231 7 0 0.0 0.0 0.00 0.00 0.00 80 1014.0
20260507073731 7 67 1.6 3.2 0.00 0.00 0.00 80 1014.0
20260507073232 7 20 3.2 4.8 0.00 0.00 0.00 78 1013.0
20260507072733 7 9 4.8 6.4 0.00 0.00 0.00 76 1013.0
20260507072231 7 36 3.2 3.2 0.00 0.00 0.00 76 1014.0
20260507071734 7 14 0.0 1.6 0.00 0.00 0.00 75 1013.0
20260507071235 7 0 0.0 0.0 0.00 0.00 0.00 75 1013.0
20260507070732 7 0 0.0 0.0 0.00 0.00 0.00 73 1013.0
20260507070231 7 0 0.0 0.0 0.00 0.00 0.00 72 1013.0
20260507065731 8 0 0.0 0.0 0.00 0.00 0.00 71 1013.0
20260507065234 8 0 0.0 0.0 0.00 0.00 0.00 71 1013.0
20260507064734 8 275 0.0 1.6 0.00 0.00 0.00 71 1014.0
20260507064234 8 0 0.0 0.0 0.00 0.00 0.00 70 1013.0
20260507063734 8 0 0.0 0.0 0.00 0.00 0.00 70 1013.0
20260507063232 9 7 4.8 4.8 0.00 0.00 0.00 71 1013.0
20260507062734 9 356 3.2 3.2 0.00 0.00 0.00 71 1014.0
20260507062232 9 24 1.6 3.2 0.00 0.00 0.00 70 1013.0
20260507061731 9 69 0.0 0.0 0.00 0.00 0.00 68 1013.0
20260507061233 9 32 1.6 3.2 0.00 0.00 0.00 68 1013.0
20260507060734 9 23 0.0 1.6 0.00 0.00 0.00 67 1013.0
20260507060232 9 58 0.0 0.0 0.00 0.00 0.00 67 1014.0
20260507055732 9 345 4.8 4.8 0.00 0.00 0.00 66 1013.0
20260507055233 9 26 4.8 6.4 0.00 0.00 0.00 65 1014.0
20260507054732 9 337 3.2 4.8 0.00 0.00 0.00 66 1014.0
20260507054232 9 12 3.2 4.8 0.00 0.00 0.00 66 1014.0
20260507053731 10 5 4.8 4.8 0.00 0.00 0.00 67 1014.0
20260507053232 10 18 6.4 6.4 0.00 0.00 0.00 66 1014.0
20260507052734 10 349 6.4 6.4 0.00 0.00 0.00 66 1014.0
20260507052232 10 8 3.2 6.4 0.00 0.00 0.00 66 1014.0
20260507051732 10 357 6.4 8.0 0.00 0.00 0.00 65 1014.0
20260507051231 10 5 4.8 6.4 0.00 0.00 0.00 65 1014.0
20260507050733 10 8 3.2 3.2 0.00 0.00 0.00 65 1014.0
20260507050236 10 4 1.6 3.2 0.00 0.00 0.00 65 1014.0
20260507045733 10 332 3.2 4.8 0.00 0.00 0.00 64 1014.0
20260507045232 10 11 4.8 4.8 0.00 0.00 0.00 66 1014.0
20260507044732 10 350 4.8 4.8 0.00 0.00 0.00 65 1014.0
20260507044232 10 35 3.2 4.8 0.00 0.00 0.00 66 1014.0
20260507043732 10 9 3.2 3.2 0.00 0.00 0.00 66 1014.0
20260507043232 10 345 3.2 3.2 0.00 0.00 0.00 66 1014.0
20260507042732 10 349 3.2 3.2 0.00 0.00 0.00 66 1014.0
20260507042232 10 334 3.2 3.2 0.00 0.00 0.00 66 1014.0
20260507041731 10 346 4.8 6.4 0.00 0.00 0.00 65 1014.0
20260507041232 10 345 4.8 6.4 0.00 0.00 0.00 64 1014.0
20260507040732 10 15 4.8 6.4 0.00 0.00 0.00 64 1014.0
20260507040232 10 3 6.4 8.0 0.00 0.00 0.00 64 1014.0
20260507035733 10 26 3.2 4.8 0.00 0.00 1.14 64 1014.0
20260507035233 10 355 6.4 6.4 0.00 0.00 1.14 64 1014.0
20260507034732 10 9 3.2 4.8 0.00 0.00 1.14 65 1014.0
20260507034231 10 353 3.2 3.2 0.00 0.00 1.14 66 1014.0
20260507033731 10 346 4.8 4.8 0.00 0.00 1.14 65 1014.0
20260507033232 10 343 3.2 6.4 0.00 0.00 1.14 67 1014.0
20260507032731 10 24 3.2 4.8 0.00 0.00 1.14 67 1014.0
20260507032232 10 355 6.4 8.0 0.00 0.00 1.14 66 1014.0
20260507031734 11 15 4.8 4.8 0.00 0.00 1.14 65 1014.0
20260507031233 11 16 3.2 4.8 0.00 0.00 1.14 65 1014.0
20260507030733 11 357 4.8 6.4 0.00 0.00 1.14 66 1013.0
20260507030233 11 0 4.8 6.4 0.00 0.00 1.14 66 1013.0
20260507025732 11 358 6.4 8.0 0.00 0.00 1.14 66 1014.0
20260507025233 11 333 4.8 8.0 0.00 0.00 1.14 66 1013.0
20260507024732 11 1 3.2 4.8 0.00 0.00 1.14 66 1014.0
20260507024231 11 349 3.2 4.8 0.00 0.00 1.14 65 1013.0
20260507023731 11 25 4.8 8.0 0.00 0.00 1.14 62 1013.0
20260507023234 11 15 6.4 9.7 0.00 0.00 1.14 63 1013.0
20260507022733 11 8 8.0 11.3 0.00 0.00 1.14 62 1013.0
20260507022231 11 353 6.4 8.0 0.00 0.00 1.14 62 1013.0
20260507021733 11 9 8.0 11.3 0.00 0.00 1.14 62 1013.0
20260507021231 11 26 6.4 8.0 0.00 0.00 1.14 61 1013.0
20260507020733 11 334 4.8 6.4 0.00 0.00 1.14 61 1013.0
20260507020232 11 353 4.8 8.0 0.00 0.00 1.14 61 1013.0
20260507015731 11 50 6.4 8.0 0.00 0.00 1.14 61 1013.0
20260507015233 11 43 8.0 9.7 0.00 0.00 1.14 60 1013.0
20260507014731 11 15 6.4 8.0 0.00 0.00 1.14 61 1013.0
20260507014233 11 15 6.4 8.0 0.00 0.00 1.14 60 1013.0
20260507013735 11 41 6.4 8.0 0.00 0.00 1.14 60 1013.0
20260507013232 11 13 11.3 14.5 0.00 0.00 1.14 59 1012.0
20260507012732 12 35 6.4 14.5 0.00 0.00 1.14 60 1013.0
20260507012232 12 32 6.4 9.7 0.00 0.00 1.14 60 1013.0
20260507011733 12 18 9.7 11.3 0.00 0.00 1.14 60 1012.0
20260507011231 12 15 9.7 11.3 0.00 0.00 1.14 60 1012.0
20260507010732 12 54 3.2 8.0 0.00 0.00 1.14 59 1012.0
20260507010232 12 7 8.0 11.3 0.00 0.00 1.14 58 1012.0
20260507005733 12 74 3.2 6.4 0.00 0.00 1.14 59 1013.0
20260507005234 12 11 8.0 9.7 0.00 0.00 1.14 59 1013.0
20260507004732 12 32 4.8 8.0 0.00 0.00 1.14 59 1013.0
20260507004231 12 4 6.4 9.7 0.00 0.00 1.14 59 1013.0
20260507003732 12 1 6.4 8.0 0.00 0.00 1.14 59 1013.0
20260507003234 12 20 6.4 9.7 0.00 0.00 1.14 58 1013.0
20260507002732 12 3 4.8 11.3 0.00 0.00 1.14 59 1013.0
20260507002233 12 39 6.4 9.7 0.00 0.00 1.14 58 1013.0
20260507001733 12 358 6.4 11.3 0.00 0.00 1.14 60 1013.0
20260507001232 12 0 9.7 14.5 0.00 0.00 1.14 60 1013.0
20260507000732 12 16 8.0 9.7 0.00 0.00 1.14 60 1013.0
20260507000234 12 11 9.7 11.3 0.00 0.00 1.14 60 1013.0
20260506235733 12 3 11.3 16.1 0.00 0.00 1.14 59 1013.0
20260506235234 12 8 16.1 22.5 0.00 0.00 1.14 59 1013.0
20260506234733 13 7 16.1 22.5 0.00 0.00 1.14 60 1012.0
20260506234233 13 344 4.8 8.0 0.00 0.00 1.14 62 1013.0
20260506233731 13 3 6.4 9.7 0.00 0.00 1.14 61 1012.0
20260506233233 13 355 8.0 11.3 0.00 0.00 1.14 61 1012.0
20260506232732 13 356 8.0 11.3 0.00 0.00 1.14 60 1012.0
20260506232231 13 347 8.0 12.9 0.00 0.00 1.14 60 1012.0